Location: Adaghas
(31.2259°N, 9.0496°W)
Time: 03:42:57
(UTC+00:00)

MOS 1 Rocket - Pass Details

Date: 18 September 2020
Orbit: 614 x 831 km, 97.4° (Epoch: 23 October)

Event Time Altitude Azimuth Distance (km) Brightness Sun altitude
Rises 19:02:27 0° 24° (NNE) 2,955 6.4 -6.1°
Reaches altitude 10° 19:04:54 10° 35° (NE) 2,017 5.4 -6.7°
Maximum altitude 19:08:45 30° 97° (E) 1,109 3.8 -7.5°
Drops below altitude 10° 19:12:30 10° 159° (SSE) 1,965 5.4 -8.3°
Sets 19:14:52 0° 170° (S) 2,864 6.3 -8.8°
